Location: LDNL
(36.4545°S, 141.6685°E)
Time: 12:31:08
(UTC+10:00)

Vanguard 3 - Pass Details

Date: 28 January 2022
Orbit: 508 x 3258 km, 33.3° (Epoch: 25 May)

Event Time Altitude Azimuth Distance (km) Brightness Sun altitude
Rises 02:40:11 0° 280° (W) 4,359 - -33.7°
Reaches altitude 10° 02:42:35 10° 281° (W) 3,667 - -33.6°
Exits shadow 02:48:26 47° 290° (WNW) 2,400 9.1 -33.3°
Maximum altitude 02:52:46 78° 5° (N) 2,254 9.0 -33.0°
Drops below altitude 10° 03:10:24 10° 87° (E) 5,964 11.7 -31.7°
Sets 03:15:31 0° 87° (E) 7,153 12.2 -31.3°
